Year,Month,Day,Hour,Minute,Value (Times are PST for temperature in C)
2012,06,27,00,00,11.50
2012,06,27,00,01,11.40
2012,06,27,00,02,11.40
2012,06,27,00,03,11.40
2012,06,27,00,04,11.40
2012,06,27,00,05,11.40
2012,06,27,00,06,11.40
2012,06,27,00,07,11.40
2012,06,27,00,08,11.40
2012,06,27,00,09,11.30
2012,06,27,00,10,11.30
2012,06,27,00,11,11.30
2012,06,27,00,12,11.30
2012,06,27,00,13,11.30
2012,06,27,00,14,11.30
2012,06,27,00,15,11.30
2012,06,27,00,16,11.30
2012,06,27,00,17,11.30
2012,06,27,00,18,11.30
2012,06,27,00,19,11.30
2012,06,27,00,20,11.30
2012,06,27,00,21,11.20
2012,06,27,00,22,11.20
2012,06,27,00,23,11.20
2012,06,27,00,24,11.20
2012,06,27,00,25,11.20
2012,06,27,00,26,11.10
2012,06,27,00,27,11.10
2012,06,27,00,28,11.10
2012,06,27,00,29,11.10
2012,06,27,00,30,11.10
2012,06,27,00,31,11.10
2012,06,27,00,32,11.10
2012,06,27,00,33,11.10
2012,06,27,00,34,11.10
2012,06,27,00,35,11.10
2012,06,27,00,36,11.10
2012,06,27,00,37,11.10
2012,06,27,00,38,11.10
2012,06,27,00,39,11.10
2012,06,27,00,40,11.10
2012,06,27,00,41,11.10
2012,06,27,00,42,11.10
2012,06,27,00,43,11.10
2012,06,27,00,44,11.10
2012,06,27,00,45,11.10
2012,06,27,00,46,11.10
2012,06,27,00,47,11.10
2012,06,27,00,48,11.10
2012,06,27,00,49,11.10
2012,06,27,00,50,11.20
2012,06,27,00,51,11.20
2012,06,27,00,52,11.20
2012,06,27,00,53,11.20
2012,06,27,00,54,11.20
2012,06,27,00,55,11.20
2012,06,27,00,56,11.20
2012,06,27,00,57,11.20
2012,06,27,00,58,11.20
2012,06,27,00,59,11.20
2012,06,27,01,00,11.20
2012,06,27,01,01,11.20
2012,06,27,01,02,11.20
2012,06,27,01,03,11.30
2012,06,27,01,04,11.30
2012,06,27,01,05,11.30
2012,06,27,01,06,11.30
2012,06,27,01,07,11.30
2012,06,27,01,08,11.30
2012,06,27,01,09,11.30
2012,06,27,01,10,11.30
2012,06,27,01,11,11.30
2012,06,27,01,12,11.30
2012,06,27,01,13,11.20
2012,06,27,01,14,11.20
2012,06,27,01,15,11.20
2012,06,27,01,16,11.20
2012,06,27,01,17,11.20
2012,06,27,01,18,11.20
2012,06,27,01,19,11.20
2012,06,27,01,20,11.20
2012,06,27,01,21,11.20
2012,06,27,01,22,11.20
2012,06,27,01,23,11.20
2012,06,27,01,24,11.10
2012,06,27,01,25,11.10
2012,06,27,01,26,11.10
2012,06,27,01,27,11.10
2012,06,27,01,28,11.10
2012,06,27,01,29,11.10
2012,06,27,01,30,11.10
2012,06,27,01,31,11.10
2012,06,27,01,32,11.10
2012,06,27,01,33,11.10
2012,06,27,01,34,11.10
2012,06,27,01,35,11.10
2012,06,27,01,36,11.10
2012,06,27,01,37,11.10
2012,06,27,01,38,11.10
2012,06,27,01,39,11.10
2012,06,27,01,40,11.10
2012,06,27,01,41,11.10
2012,06,27,01,42,11.10
2012,06,27,01,43,11.10
2012,06,27,01,44,11.10
2012,06,27,01,45,11.10
2012,06,27,01,46,11.10
2012,06,27,01,47,11.10
2012,06,27,01,48,11.10
2012,06,27,01,49,11.10
2012,06,27,01,50,11.10
2012,06,27,01,51,11.10
2012,06,27,01,52,11.10
2012,06,27,01,53,11.10
2012,06,27,01,54,11.10
2012,06,27,01,55,11.10
2012,06,27,01,56,11.10
2012,06,27,01,57,11.10
2012,06,27,01,58,11.10
2012,06,27,01,59,11.10
2012,06,27,02,00,11.10
2012,06,27,02,01,11.10
2012,06,27,02,02,11.10
2012,06,27,02,03,11.10
2012,06,27,02,04,11.20
2012,06,27,02,05,11.20
2012,06,27,02,06,11.20
2012,06,27,02,07,11.20
2012,06,27,02,08,11.20
2012,06,27,02,09,11.20
2012,06,27,02,10,11.20
2012,06,27,02,11,11.20
2012,06,27,02,12,11.20
2012,06,27,02,13,11.20
2012,06,27,02,14,11.20
2012,06,27,02,15,11.20
2012,06,27,02,16,11.20
2012,06,27,02,17,11.20
2012,06,27,02,18,11.20
2012,06,27,02,19,11.20
2012,06,27,02,20,11.20
2012,06,27,02,21,11.20
2012,06,27,02,22,11.20
2012,06,27,02,23,11.20
2012,06,27,02,24,11.20
2012,06,27,02,25,11.20
2012,06,27,02,26,11.20
2012,06,27,02,27,11.20
2012,06,27,02,28,11.20
2012,06,27,02,29,11.20
2012,06,27,02,30,11.20
2012,06,27,02,31,11.20
2012,06,27,02,32,11.20
2012,06,27,02,33,11.20
2012,06,27,02,34,11.20
2012,06,27,02,35,11.20
2012,06,27,02,36,11.10
2012,06,27,02,37,11.10
2012,06,27,02,38,11.10
2012,06,27,02,39,11.10
2012,06,27,02,40,11.00
2012,06,27,02,41,10.90
2012,06,27,02,42,10.90
2012,06,27,02,43,10.90
2012,06,27,02,44,10.80
2012,06,27,02,45,10.70
2012,06,27,02,46,10.60
2012,06,27,02,47,10.40
2012,06,27,02,48,10.40
2012,06,27,02,49,10.30
2012,06,27,02,50,10.20
2012,06,27,02,51,10.10
2012,06,27,02,52,9.90
2012,06,27,02,53,9.90
2012,06,27,02,54,9.80
2012,06,27,02,55,9.80
2012,06,27,02,56,9.70
2012,06,27,02,57,9.70
2012,06,27,02,58,9.70
2012,06,27,02,59,9.70
2012,06,27,03,00,9.70
2012,06,27,03,01,9.60
2012,06,27,03,02,9.60
2012,06,27,03,03,9.50
2012,06,27,03,04,9.50
2012,06,27,03,05,9.40
2012,06,27,03,06,9.40
2012,06,27,03,07,9.30
2012,06,27,03,08,9.30
2012,06,27,03,09,9.30
2012,06,27,03,10,9.20
2012,06,27,03,11,9.20
2012,06,27,03,12,9.20
2012,06,27,03,13,9.20
2012,06,27,03,14,9.20
2012,06,27,03,15,9.20
2012,06,27,03,16,9.20
2012,06,27,03,17,9.20
2012,06,27,03,18,9.10
2012,06,27,03,19,9.10
2012,06,27,03,20,9.10
2012,06,27,03,21,9.00
2012,06,27,03,22,9.00
2012,06,27,03,23,9.00
2012,06,27,03,24,8.90
2012,06,27,03,25,8.90
2012,06,27,03,26,8.90
2012,06,27,03,27,8.80
2012,06,27,03,28,8.80
2012,06,27,03,29,8.80
2012,06,27,03,30,8.80
2012,06,27,03,31,8.70
2012,06,27,03,32,8.70
2012,06,27,03,33,8.70
2012,06,27,03,34,8.70
2012,06,27,03,35,8.70
2012,06,27,03,36,8.70
2012,06,27,03,37,8.70
2012,06,27,03,38,8.70
2012,06,27,03,39,8.60
2012,06,27,03,40,8.60
2012,06,27,03,41,8.60
2012,06,27,03,42,8.60
2012,06,27,03,43,8.50
2012,06,27,03,44,8.50
2012,06,27,03,45,8.50
2012,06,27,03,46,8.50
2012,06,27,03,47,8.50
2012,06,27,03,48,8.40
2012,06,27,03,49,8.40
2012,06,27,03,50,8.40
2012,06,27,03,51,8.40
2012,06,27,03,52,8.40
2012,06,27,03,53,8.40
2012,06,27,03,54,8.30
2012,06,27,03,55,8.30
2012,06,27,03,56,8.30
2012,06,27,03,57,8.30
2012,06,27,03,58,8.30
2012,06,27,03,59,8.20
2012,06,27,04,00,8.20
2012,06,27,04,01,8.20
2012,06,27,04,02,8.20
2012,06,27,04,03,8.20
2012,06,27,04,04,8.20
2012,06,27,04,05,8.20
2012,06,27,04,06,8.20
2012,06,27,04,07,8.20
2012,06,27,04,08,8.20
2012,06,27,04,09,8.20
2012,06,27,04,10,8.10
2012,06,27,04,11,8.10
2012,06,27,04,12,8.10
2012,06,27,04,13,8.10
2012,06,27,04,14,8.10
2012,06,27,04,15,8.10
2012,06,27,04,16,8.10
2012,06,27,04,17,8.10
2012,06,27,04,18,8.10
2012,06,27,04,19,8.10
2012,06,27,04,20,8.10
2012,06,27,04,21,8.00
2012,06,27,04,22,8.00
2012,06,27,04,23,8.00
2012,06,27,04,24,8.00
2012,06,27,04,25,8.00
2012,06,27,04,26,8.00
2012,06,27,04,27,8.00
2012,06,27,04,28,8.00
2012,06,27,04,29,8.00
2012,06,27,04,30,8.00
2012,06,27,04,31,8.00
2012,06,27,04,32,8.00
2012,06,27,04,33,8.00
2012,06,27,04,34,8.00
2012,06,27,04,35,8.00
2012,06,27,04,36,8.00
2012,06,27,04,37,8.00
2012,06,27,04,38,8.00
2012,06,27,04,39,8.00
2012,06,27,04,40,8.00
2012,06,27,04,41,8.00
2012,06,27,04,42,8.00
2012,06,27,04,43,8.00
2012,06,27,04,44,8.00
2012,06,27,04,45,8.00
2012,06,27,04,46,8.00
2012,06,27,04,47,8.00
2012,06,27,04,48,8.00
2012,06,27,04,49,8.00
2012,06,27,04,50,8.00
2012,06,27,04,51,8.00
2012,06,27,04,52,8.00
2012,06,27,04,53,7.90
2012,06,27,04,54,7.90
2012,06,27,04,55,7.90
2012,06,27,04,56,7.90
2012,06,27,04,57,7.90
2012,06,27,04,58,7.90
2012,06,27,04,59,7.90
2012,06,27,05,00,7.90
2012,06,27,05,01,8.00
2012,06,27,05,02,8.00
2012,06,27,05,03,7.90
2012,06,27,05,04,7.90
2012,06,27,05,05,7.90
2012,06,27,05,06,7.90
2012,06,27,05,07,7.90
2012,06,27,05,08,7.90
2012,06,27,05,09,7.90
2012,06,27,05,10,7.90
2012,06,27,05,11,7.80
2012,06,27,05,12,7.80
2012,06,27,05,13,7.80
2012,06,27,05,14,7.80
2012,06,27,05,15,7.80
2012,06,27,05,16,7.80
2012,06,27,05,17,7.80
2012,06,27,05,18,7.80
2012,06,27,05,19,7.80
2012,06,27,05,20,7.80
2012,06,27,05,21,7.80
2012,06,27,05,22,7.80
2012,06,27,05,23,7.80
2012,06,27,05,24,7.70
2012,06,27,05,25,7.70
2012,06,27,05,26,7.70
2012,06,27,05,27,7.70
2012,06,27,05,28,7.70
2012,06,27,05,29,7.70
2012,06,27,05,30,7.70
2012,06,27,05,31,7.70
2012,06,27,05,32,7.70
2012,06,27,05,33,7.70
2012,06,27,05,34,7.60
2012,06,27,05,35,7.60
2012,06,27,05,36,7.60
2012,06,27,05,37,7.60
2012,06,27,05,38,7.50
2012,06,27,05,39,7.50
2012,06,27,05,40,7.40
2012,06,27,05,41,7.40
2012,06,27,05,42,7.40
2012,06,27,05,43,7.30
2012,06,27,05,44,7.30
2012,06,27,05,45,7.30
2012,06,27,05,46,7.30
2012,06,27,05,47,7.30
2012,06,27,05,48,7.30
2012,06,27,05,49,7.30
2012,06,27,05,50,7.30
2012,06,27,05,51,7.30
2012,06,27,05,52,7.30
2012,06,27,05,53,7.30
2012,06,27,05,54,7.30
2012,06,27,05,55,7.30
2012,06,27,05,56,7.30
2012,06,27,05,57,7.30
2012,06,27,05,58,7.30
2012,06,27,05,59,7.30
2012,06,27,06,00,7.30
2012,06,27,06,01,7.30
2012,06,27,06,02,7.30
2012,06,27,06,03,7.30
2012,06,27,06,04,7.30
2012,06,27,06,05,7.30
2012,06,27,06,06,7.30
2012,06,27,06,07,7.30
2012,06,27,06,08,7.30
2012,06,27,06,09,7.30
2012,06,27,06,10,7.30
2012,06,27,06,11,7.30
2012,06,27,06,12,7.30
2012,06,27,06,13,7.30
2012,06,27,06,14,7.40
2012,06,27,06,15,7.40
2012,06,27,06,16,7.40
2012,06,27,06,17,7.50
2012,06,27,06,18,7.50
2012,06,27,06,19,7.60
2012,06,27,06,20,7.60
2012,06,27,06,21,7.70
2012,06,27,06,22,7.80
2012,06,27,06,23,7.80
2012,06,27,06,24,7.90
2012,06,27,06,25,7.90
2012,06,27,06,26,8.00
2012,06,27,06,27,8.00
2012,06,27,06,28,8.10
2012,06,27,06,29,8.10
2012,06,27,06,30,8.20
2012,06,27,06,31,8.20
2012,06,27,06,32,8.30
2012,06,27,06,33,8.30
2012,06,27,06,34,8.40
2012,06,27,06,35,8.50
2012,06,27,06,36,8.50
2012,06,27,06,37,8.60
2012,06,27,06,38,8.70
2012,06,27,06,39,8.70
2012,06,27,06,40,8.80
2012,06,27,06,41,8.90
2012,06,27,06,42,8.90
2012,06,27,06,43,9.00
2012,06,27,06,44,9.10
2012,06,27,06,45,9.10
2012,06,27,06,46,9.20
2012,06,27,06,47,9.20
2012,06,27,06,48,9.30
2012,06,27,06,49,9.30
2012,06,27,06,50,9.40
2012,06,27,06,51,9.40
2012,06,27,06,52,9.50
2012,06,27,06,53,9.50
2012,06,27,06,54,9.60
2012,06,27,06,55,9.60
2012,06,27,06,56,9.60
2012,06,27,06,57,9.60
2012,06,27,06,58,9.70
2012,06,27,06,59,9.70
2012,06,27,07,00,9.70
2012,06,27,07,01,9.70
2012,06,27,07,02,9.80
2012,06,27,07,03,9.80
2012,06,27,07,04,9.90
2012,06,27,07,05,10.00
2012,06,27,07,06,10.10
2012,06,27,07,07,10.10
2012,06,27,07,08,10.20
2012,06,27,07,09,10.20
2012,06,27,07,10,10.30
2012,06,27,07,11,10.30
2012,06,27,07,12,10.30
2012,06,27,07,13,10.40
2012,06,27,07,14,10.40
2012,06,27,07,15,10.40
2012,06,27,07,16,10.40
2012,06,27,07,17,10.40
2012,06,27,07,18,10.40
2012,06,27,07,19,10.40
2012,06,27,07,20,10.40
2012,06,27,07,21,10.40
2012,06,27,07,22,10.50
2012,06,27,07,23,10.60
2012,06,27,07,24,10.60
2012,06,27,07,25,10.70
2012,06,27,07,26,10.80
2012,06,27,07,27,10.90
2012,06,27,07,28,11.00
2012,06,27,07,29,11.10
2012,06,27,07,30,11.10
2012,06,27,07,31,11.10
2012,06,27,07,32,11.10
2012,06,27,07,33,11.10
2012,06,27,07,34,11.10
2012,06,27,07,35,11.10
2012,06,27,07,36,11.20
2012,06,27,07,37,11.20
2012,06,27,07,38,11.30
2012,06,27,07,39,11.40
2012,06,27,07,40,11.40
2012,06,27,07,41,11.60
2012,06,27,07,42,11.60
2012,06,27,07,43,11.70
2012,06,27,07,44,11.80
2012,06,27,07,45,11.90
2012,06,27,07,46,12.00
2012,06,27,07,47,12.10
2012,06,27,07,48,12.20
2012,06,27,07,49,12.30
2012,06,27,07,50,12.40
2012,06,27,07,51,12.40
2012,06,27,07,52,12.40
2012,06,27,07,53,12.40
2012,06,27,07,54,12.40
2012,06,27,07,55,12.40
2012,06,27,07,56,12.40
2012,06,27,07,57,12.50
2012,06,27,07,58,12.60
2012,06,27,07,59,12.70
2012,06,27,08,00,12.80
2012,06,27,08,01,12.80
2012,06,27,08,02,12.90
2012,06,27,08,03,12.90
2012,06,27,08,04,12.80
2012,06,27,08,05,12.70
2012,06,27,08,06,12.70
2012,06,27,08,07,12.80
2012,06,27,08,08,12.80
2012,06,27,08,09,12.80
2012,06,27,08,10,12.80
2012,06,27,08,11,12.80
2012,06,27,08,12,12.80
2012,06,27,08,13,12.80
2012,06,27,08,14,12.70
2012,06,27,08,15,12.70
2012,06,27,08,16,12.70
2012,06,27,08,17,12.80
2012,06,27,08,18,12.80
2012,06,27,08,19,12.90
2012,06,27,08,20,13.00
2012,06,27,08,21,13.10
2012,06,27,08,22,13.10
2012,06,27,08,23,13.20
2012,06,27,08,24,13.20
2012,06,27,08,25,13.30
2012,06,27,08,26,13.40
2012,06,27,08,27,13.50
2012,06,27,08,28,13.50
2012,06,27,08,29,13.50
2012,06,27,08,30,13.60
2012,06,27,08,31,13.60
2012,06,27,08,32,13.60
2012,06,27,08,33,13.60
2012,06,27,08,34,13.70
2012,06,27,08,35,13.70
2012,06,27,08,36,13.70
2012,06,27,08,37,13.80
2012,06,27,08,38,13.90
2012,06,27,08,39,13.90
2012,06,27,08,40,13.90
2012,06,27,08,41,14.00
2012,06,27,08,42,13.90
2012,06,27,08,43,13.70
2012,06,27,08,44,13.70
2012,06,27,08,45,13.60
2012,06,27,08,46,13.50
2012,06,27,08,47,13.30
2012,06,27,08,48,13.20
2012,06,27,08,49,13.10
2012,06,27,08,50,13.00
2012,06,27,08,51,13.00
2012,06,27,08,52,12.90
2012,06,27,08,53,12.90
2012,06,27,08,54,12.80
2012,06,27,08,55,12.80
2012,06,27,08,56,12.80
2012,06,27,08,57,12.80
2012,06,27,08,58,12.90
2012,06,27,08,59,12.80
2012,06,27,09,00,12.90
2012,06,27,09,01,12.90
2012,06,27,09,02,12.80
2012,06,27,09,03,12.80
2012,06,27,09,04,12.80
2012,06,27,09,05,12.80
2012,06,27,09,06,12.70
2012,06,27,09,07,12.70
2012,06,27,09,08,12.60
2012,06,27,09,09,12.60
2012,06,27,09,10,12.70
2012,06,27,09,11,12.80
2012,06,27,09,12,12.80
2012,06,27,09,13,12.80
2012,06,27,09,14,12.70
2012,06,27,09,15,12.70
2012,06,27,09,16,12.70
2012,06,27,09,17,12.70
2012,06,27,09,18,12.60
2012,06,27,09,19,12.60
2012,06,27,09,20,12.60
2012,06,27,09,21,12.60
2012,06,27,09,22,12.50
2012,06,27,09,23,12.50
2012,06,27,09,24,12.40
2012,06,27,09,25,12.40
2012,06,27,09,26,12.50
2012,06,27,09,27,12.50
2012,06,27,09,28,12.50
2012,06,27,09,29,12.50
2012,06,27,09,30,12.50
2012,06,27,09,31,12.60
2012,06,27,09,32,12.60
2012,06,27,09,33,12.60
2012,06,27,09,34,12.60
2012,06,27,09,35,12.60
2012,06,27,09,36,12.60
2012,06,27,09,37,12.60
2012,06,27,09,38,12.70
2012,06,27,09,39,12.80
2012,06,27,09,40,12.80
2012,06,27,09,41,12.80
2012,06,27,09,42,12.80
2012,06,27,09,43,12.80
2012,06,27,09,44,12.80
2012,06,27,09,45,12.80
2012,06,27,09,46,12.90
2012,06,27,09,47,12.90
2012,06,27,09,48,12.90
2012,06,27,09,49,12.80
2012,06,27,09,50,12.80
2012,06,27,09,51,12.90
2012,06,27,09,52,12.90
2012,06,27,09,53,13.00
2012,06,27,09,54,13.00
2012,06,27,09,55,13.10
2012,06,27,09,56,13.10
2012,06,27,09,57,13.20
2012,06,27,09,58,13.10
2012,06,27,09,59,13.10
2012,06,27,10,00,13.00
2012,06,27,10,01,12.90
2012,06,27,10,02,12.90
2012,06,27,10,03,12.90
2012,06,27,10,04,13.00
2012,06,27,10,05,13.10
2012,06,27,10,06,13.10
2012,06,27,10,07,13.20
2012,06,27,10,08,13.20
2012,06,27,10,09,13.10
2012,06,27,10,10,13.10
2012,06,27,10,11,13.10
2012,06,27,10,12,13.20
2012,06,27,10,13,13.20
2012,06,27,10,14,13.30
2012,06,27,10,15,13.30
2012,06,27,10,16,13.40
2012,06,27,10,17,13.50
2012,06,27,10,18,13.50
2012,06,27,10,19,13.50
2012,06,27,10,20,13.50
2012,06,27,10,21,13.50
2012,06,27,10,22,13.50
2012,06,27,10,23,13.50
2012,06,27,10,24,13.50
2012,06,27,10,25,13.70
2012,06,27,10,26,13.80
2012,06,27,10,27,13.80
2012,06,27,10,28,13.80
2012,06,27,10,29,13.80
2012,06,27,10,30,13.90
2012,06,27,10,31,13.80
2012,06,27,10,32,13.80
2012,06,27,10,33,13.90
2012,06,27,10,34,13.90
2012,06,27,10,35,13.90
2012,06,27,10,36,14.00
2012,06,27,10,37,14.00
2012,06,27,10,38,14.10
2012,06,27,10,39,14.10
2012,06,27,10,40,14.10
2012,06,27,10,41,14.20
2012,06,27,10,42,14.30
2012,06,27,10,43,14.30
2012,06,27,10,44,14.30
2012,06,27,10,45,14.30
2012,06,27,10,46,14.30
2012,06,27,10,47,14.40
2012,06,27,10,48,14.30
2012,06,27,10,49,14.30
2012,06,27,10,50,14.20
2012,06,27,10,51,14.20
2012,06,27,10,52,14.20
2012,06,27,10,53,14.20
2012,06,27,10,54,14.20
2012,06,27,10,55,14.30
2012,06,27,10,56,14.40
2012,06,27,10,57,14.40
2012,06,27,10,58,14.30
2012,06,27,10,59,14.10
2012,06,27,11,00,14.00
2012,06,27,11,01,14.00
2012,06,27,11,02,14.00
2012,06,27,11,03,14.00
2012,06,27,11,04,14.10
2012,06,27,11,05,14.20
2012,06,27,11,06,14.20
2012,06,27,11,07,14.10
2012,06,27,11,08,14.10
2012,06,27,11,09,14.10
2012,06,27,11,10,14.10
2012,06,27,11,11,14.10
2012,06,27,11,12,14.20
2012,06,27,11,13,14.30
2012,06,27,11,14,14.30
2012,06,27,11,15,14.30
2012,06,27,11,16,14.30
2012,06,27,11,17,14.20
2012,06,27,11,18,14.10
2012,06,27,11,19,14.00
2012,06,27,11,20,13.90
2012,06,27,11,21,13.90
2012,06,27,11,22,14.00
2012,06,27,11,23,14.20
2012,06,27,11,24,14.20
2012,06,27,11,25,14.20
2012,06,27,11,26,14.20
2012,06,27,11,27,14.30
2012,06,27,11,28,14.30
2012,06,27,11,29,14.40
2012,06,27,11,30,14.40
2012,06,27,11,31,14.30
2012,06,27,11,32,14.20
2012,06,27,11,33,14.20
2012,06,27,11,34,14.20
2012,06,27,11,35,14.20
2012,06,27,11,36,14.10
2012,06,27,11,37,14.00
2012,06,27,11,38,14.00
2012,06,27,11,39,14.00
2012,06,27,11,40,13.90
2012,06,27,11,41,14.00
2012,06,27,11,42,14.00
2012,06,27,11,43,14.00
2012,06,27,11,44,14.10
2012,06,27,11,45,14.20
2012,06,27,11,46,14.20
2012,06,27,11,47,14.20
2012,06,27,11,48,14.20
2012,06,27,11,49,14.20
2012,06,27,11,50,14.20
2012,06,27,11,51,14.20
2012,06,27,11,52,14.20
2012,06,27,11,53,14.20
2012,06,27,11,54,14.10
2012,06,27,11,55,14.10
2012,06,27,11,56,14.10
2012,06,27,11,57,14.20
2012,06,27,11,58,14.20
2012,06,27,11,59,14.30
2012,06,27,12,00,14.40
2012,06,27,12,01,14.30
2012,06,27,12,02,14.20
2012,06,27,12,03,14.20
2012,06,27,12,04,14.20
2012,06,27,12,05,14.20
2012,06,27,12,06,14.20
2012,06,27,12,07,14.20
2012,06,27,12,08,14.30
2012,06,27,12,09,14.40
2012,06,27,12,10,14.50
2012,06,27,12,11,14.60
2012,06,27,12,12,14.50
2012,06,27,12,13,14.50
2012,06,27,12,14,14.50
2012,06,27,12,15,14.40
2012,06,27,12,16,14.40
2012,06,27,12,17,14.40
2012,06,27,12,18,14.40
2012,06,27,12,19,14.30
2012,06,27,12,20,14.20
2012,06,27,12,21,14.20
2012,06,27,12,22,14.20
2012,06,27,12,23,14.30
2012,06,27,12,24,14.30
2012,06,27,12,25,14.40
2012,06,27,12,26,14.30
2012,06,27,12,27,14.50
2012,06,27,12,28,14.50
2012,06,27,12,29,14.50
2012,06,27,12,30,14.60
2012,06,27,12,31,14.70
2012,06,27,12,32,14.80
2012,06,27,12,33,14.80
2012,06,27,12,34,14.90
2012,06,27,12,35,15.00
2012,06,27,12,36,15.00
2012,06,27,12,37,15.00
2012,06,27,12,38,15.00
2012,06,27,12,39,15.10
2012,06,27,12,40,15.20
2012,06,27,12,41,15.30
2012,06,27,12,42,15.30
2012,06,27,12,43,15.30
2012,06,27,12,44,15.30
2012,06,27,12,45,15.30
2012,06,27,12,46,15.30
2012,06,27,12,47,15.30
2012,06,27,12,48,15.40
2012,06,27,12,49,15.50
2012,06,27,12,50,15.50
2012,06,27,12,51,15.40
2012,06,27,12,52,15.40
2012,06,27,12,53,15.30
2012,06,27,12,54,15.30
2012,06,27,12,55,15.30
2012,06,27,12,56,15.30
2012,06,27,12,57,15.20
2012,06,27,12,58,15.20
2012,06,27,12,59,15.20
2012,06,27,13,00,15.20
2012,06,27,13,01,15.10
2012,06,27,13,02,15.00
2012,06,27,13,03,15.10
2012,06,27,13,04,15.20
2012,06,27,13,05,15.30
2012,06,27,13,06,15.30
2012,06,27,13,07,15.40
2012,06,27,13,08,15.40
2012,06,27,13,09,15.50
2012,06,27,13,10,15.60
2012,06,27,13,11,15.60
2012,06,27,13,12,15.70
2012,06,27,13,13,15.80
2012,06,27,13,14,15.70
2012,06,27,13,15,15.60
2012,06,27,13,16,15.60
2012,06,27,13,17,15.60
2012,06,27,13,18,15.60
2012,06,27,13,19,15.60
2012,06,27,13,20,15.50
2012,06,27,13,21,15.40
2012,06,27,13,22,15.30
2012,06,27,13,23,15.30
2012,06,27,13,24,15.30
2012,06,27,13,25,15.30
2012,06,27,13,26,15.30
2012,06,27,13,27,15.30
2012,06,27,13,28,15.30
2012,06,27,13,29,15.30
2012,06,27,13,30,15.30
2012,06,27,13,31,15.30
2012,06,27,13,32,15.30
2012,06,27,13,33,15.30
2012,06,27,13,34,15.30
2012,06,27,13,35,15.30
2012,06,27,13,36,15.30
2012,06,27,13,37,15.30
2012,06,27,13,38,15.40
2012,06,27,13,39,15.40
2012,06,27,13,40,15.40
2012,06,27,13,41,15.40
2012,06,27,13,42,15.50
2012,06,27,13,43,15.60
2012,06,27,13,44,15.50
2012,06,27,13,45,15.60
2012,06,27,13,46,15.70
2012,06,27,13,47,15.80
2012,06,27,13,48,15.90
2012,06,27,13,49,15.90
2012,06,27,13,50,15.90
2012,06,27,13,51,15.90
2012,06,27,13,52,15.90
2012,06,27,13,53,15.90
2012,06,27,13,54,15.90
2012,06,27,13,55,15.90
2012,06,27,13,56,16.00
2012,06,27,13,57,15.90
2012,06,27,13,58,16.00
2012,06,27,13,59,16.00
2012,06,27,14,00,15.90
2012,06,27,14,01,15.80
2012,06,27,14,02,15.80
2012,06,27,14,03,15.80
2012,06,27,14,04,15.80
2012,06,27,14,05,15.90
2012,06,27,14,06,15.90
2012,06,27,14,07,15.80
2012,06,27,14,08,15.70
2012,06,27,14,09,15.60
2012,06,27,14,10,15.50
2012,06,27,14,11,15.50
2012,06,27,14,12,15.50
2012,06,27,14,13,15.50
2012,06,27,14,14,15.40
2012,06,27,14,15,15.40
2012,06,27,14,16,15.40
2012,06,27,14,17,15.40
2012,06,27,14,18,15.50
2012,06,27,14,19,15.60
2012,06,27,14,20,15.80
2012,06,27,14,21,15.90
2012,06,27,14,22,15.90
2012,06,27,14,23,15.90
2012,06,27,14,24,15.80
2012,06,27,14,25,15.60
2012,06,27,14,26,15.70
2012,06,27,14,27,15.70
2012,06,27,14,28,15.80
2012,06,27,14,29,15.80
2012,06,27,14,30,15.90
2012,06,27,14,31,16.10
2012,06,27,14,32,16.20
2012,06,27,14,33,16.30
2012,06,27,14,34,16.20
2012,06,27,14,35,16.20
2012,06,27,14,36,16.20
2012,06,27,14,37,16.20
2012,06,27,14,38,16.30
2012,06,27,14,39,16.40
2012,06,27,14,40,16.40
2012,06,27,14,41,16.30
2012,06,27,14,42,16.30
2012,06,27,14,43,16.30
2012,06,27,14,44,16.20
2012,06,27,14,45,16.10
2012,06,27,14,46,16.00
2012,06,27,14,47,15.90
2012,06,27,14,48,15.80
2012,06,27,14,49,15.70
2012,06,27,14,50,15.70
2012,06,27,14,51,15.60
2012,06,27,14,52,15.60
2012,06,27,14,53,15.50
2012,06,27,14,54,15.50
2012,06,27,14,55,15.40
2012,06,27,14,56,15.50
2012,06,27,14,57,15.60
2012,06,27,14,58,15.60
2012,06,27,14,59,15.60
2012,06,27,15,00,15.70
2012,06,27,15,01,15.80
2012,06,27,15,02,15.90
2012,06,27,15,03,16.10
2012,06,27,15,04,16.30
2012,06,27,15,05,16.50
2012,06,27,15,06,16.50
2012,06,27,15,07,16.40
2012,06,27,15,08,16.30
2012,06,27,15,09,16.30
2012,06,27,15,10,16.20
2012,06,27,15,11,16.10
2012,06,27,15,12,16.30
2012,06,27,15,13,16.40
2012,06,27,15,14,16.60
2012,06,27,15,15,16.70
2012,06,27,15,16,16.70
2012,06,27,15,17,16.70
2012,06,27,15,18,16.70
2012,06,27,15,19,16.70
2012,06,27,15,20,16.70
2012,06,27,15,21,16.70
2012,06,27,15,22,16.90
2012,06,27,15,23,17.10
2012,06,27,15,24,17.30
2012,06,27,15,25,17.40
2012,06,27,15,26,17.40
2012,06,27,15,27,17.50
2012,06,27,15,28,17.60
2012,06,27,15,29,17.60
2012,06,27,15,30,17.60
2012,06,27,15,31,17.50
2012,06,27,15,32,17.40
2012,06,27,15,33,17.50
2012,06,27,15,34,17.60
2012,06,27,15,35,17.80
2012,06,27,15,36,17.80
2012,06,27,15,37,17.90
2012,06,27,15,38,18.10
2012,06,27,15,39,18.10
2012,06,27,15,40,18.20
2012,06,27,15,41,18.20
2012,06,27,15,42,18.20
2012,06,27,15,43,18.20
2012,06,27,15,44,18.30
2012,06,27,15,45,18.50
2012,06,27,15,46,18.50
2012,06,27,15,47,18.50
2012,06,27,15,48,18.40
2012,06,27,15,49,18.40
2012,06,27,15,50,18.50
2012,06,27,15,51,18.60
2012,06,27,15,52,18.50
2012,06,27,15,53,18.60
2012,06,27,15,54,18.70
2012,06,27,15,55,18.70
2012,06,27,15,56,18.70
2012,06,27,15,57,18.80
2012,06,27,15,58,18.80
2012,06,27,15,59,18.80
2012,06,27,16,00,18.90
2012,06,27,16,01,18.90
2012,06,27,16,02,19.00
2012,06,27,16,03,19.10
2012,06,27,16,04,19.10
2012,06,27,16,05,19.10
2012,06,27,16,06,19.10
2012,06,27,16,07,19.10
2012,06,27,16,08,19.10
2012,06,27,16,09,19.10
2012,06,27,16,10,19.20
2012,06,27,16,11,19.10
2012,06,27,16,12,19.10
2012,06,27,16,13,19.10
2012,06,27,16,14,19.10
2012,06,27,16,15,19.10
2012,06,27,16,16,19.20
2012,06,27,16,17,19.30
2012,06,27,16,18,19.30
2012,06,27,16,19,19.20
2012,06,27,16,20,19.10
2012,06,27,16,21,19.10
2012,06,27,16,22,19.00
2012,06,27,16,23,18.90
2012,06,27,16,24,18.90
2012,06,27,16,25,18.90
2012,06,27,16,26,18.90
2012,06,27,16,27,18.90
2012,06,27,16,28,18.90
2012,06,27,16,29,19.00
2012,06,27,16,30,19.10
2012,06,27,16,31,19.10
2012,06,27,16,32,19.10
2012,06,27,16,33,19.20
2012,06,27,16,34,19.20
2012,06,27,16,35,19.30
2012,06,27,16,36,19.40
2012,06,27,16,37,19.50
2012,06,27,16,38,19.50
2012,06,27,16,39,19.60
2012,06,27,16,40,19.50
2012,06,27,16,41,19.50
2012,06,27,16,42,19.50
2012,06,27,16,43,19.50
2012,06,27,16,44,19.40
2012,06,27,16,45,19.30
2012,06,27,16,46,19.10
2012,06,27,16,47,18.90
2012,06,27,16,48,18.80
2012,06,27,16,49,18.70
2012,06,27,16,50,18.60
2012,06,27,16,51,18.40
2012,06,27,16,52,18.00
2012,06,27,16,53,17.80
2012,06,27,16,54,17.50
2012,06,27,16,55,17.30
2012,06,27,16,56,17.20
2012,06,27,16,57,17.10
2012,06,27,16,58,16.90
2012,06,27,16,59,16.70
2012,06,27,17,00,16.50
2012,06,27,17,01,16.40
2012,06,27,17,02,16.50
2012,06,27,17,03,16.50
2012,06,27,17,04,16.40
2012,06,27,17,05,16.30
2012,06,27,17,06,16.20
2012,06,27,17,07,16.20
2012,06,27,17,08,16.10
2012,06,27,17,09,16.00
2012,06,27,17,10,15.80
2012,06,27,17,11,15.70
2012,06,27,17,12,15.70
2012,06,27,17,13,15.70
2012,06,27,17,14,15.60
2012,06,27,17,15,15.60
2012,06,27,17,16,15.60
2012,06,27,17,17,15.70
2012,06,27,17,18,15.70
2012,06,27,17,19,15.70
2012,06,27,17,20,15.80
2012,06,27,17,21,15.80
2012,06,27,17,22,15.80
2012,06,27,17,23,15.80
2012,06,27,17,24,15.80
2012,06,27,17,25,15.80
2012,06,27,17,26,15.70
2012,06,27,17,27,15.70
2012,06,27,17,28,15.60
2012,06,27,17,29,15.50
2012,06,27,17,30,15.50